Date String (YYYY-MM-DD hh:mm:ss) UTC,Instrument flags,absolute air pressure of the measurement (hPa),sample flow rate (lpm),inlet stack bypass flow (lpm),air temperature of the measurement (°C),ambient temperature measured by the external sensor (°C),aerosol sample conditioner tube jacket temperature (°C),OPC LED temperature (°C),internal box temperature (°C),relative humidity of the measurement (%),span deviation,mass concentration of particles derived from Lorenz-Mie calculation of OPC scattering (μg/m³),mass concentration of particles derived from Lorenz-Mie calculation of OPC scattering (μg/m³),mass concentration of particles derived from Lorenz-Mie calculation of OPC scattering (μg/m³)
DateTimeUTC,F1_M11,P_M11,Q1_M11,Q2_M11,T1_M11,T2_M11,T3_M11,T4_M11,T5_M11,U1_M11,ZSPAN_M11,X0_M11,X2_M11,X1_M11
2023-10-19 23:00:00,SystemResetWarning,0833.3,5.00,000.00,028.0,025.6,000.0,036.4,029.7,13.9,0000.0,0012.07,0002.36,0001.05
2023-10-19 23:01:00,SystemResetWarning,0833.3,5.00,000.00,028.0,026.0,000.0,036.4,029.8,13.9,0000.0,0011.43,0002.32,0001.04
2023-10-19 23:02:00,SystemResetWarning,0833.3,5.01,000.00,028.1,026.4,000.0,036.5,029.9,14.0,0000.0,0011.92,0002.28,0001.05
2023-10-19 23:03:00,SystemResetWarning,0833.3,5.00,000.00,028.1,026.7,000.0,036.5,030.0,14.0,0000.0,0012.26,0002.32,0001.06
2023-10-19 23:04:00,SystemResetWarning,0833.3,5.00,000.00,028.2,026.9,000.0,036.5,030.0,13.6,0000.0,0012.46,0002.34,0001.05
2023-10-19 23:05:00,SystemResetWarning,0833.4,5.00,000.00,028.3,027.2,000.0,036.5,030.1,13.6,0000.0,0012.57,0002.51,0001.05
2023-10-19 23:06:00,SystemResetWarning,0833.4,4.98,000.00,028.3,026.8,000.0,036.6,030.2,13.4,0000.0,0010.89,0002.58,0001.06
2023-10-19 23:07:00,SystemResetWarning,0833.3,5.00,000.00,028.3,025.0,000.0,036.5,030.0,13.7,0000.0,0010.22,0002.61,0001.07
2023-10-19 23:08:00,SystemResetWarning,0833.3,5.01,000.00,028.2,024.2,000.0,036.4,029.8,13.7,0000.0,0009.93,0002.60,0001.07
2023-10-19 23:09:00,SystemResetWarning,0833.3,4.99,000.00,028.1,024.4,000.0,036.4,029.7,13.7,0000.0,0010.24,0002.63,0001.09
2023-10-19 23:10:00,SystemResetWarning,0833.3,5.00,000.00,028.0,024.8,000.0,036.4,029.6,13.7,0000.0,0010.39,0002.65,0001.10
2023-10-19 23:11:00,SystemResetWarning,0833.3,5.00,000.00,028.0,025.2,000.0,036.4,029.6,13.7,0000.0,0010.32,0002.62,0001.09
2023-10-19 23:12:00,SystemResetWarning,0833.3,5.00,000.00,028.0,025.7,000.0,036.4,029.7,13.7,0000.0,0010.46,0002.65,0001.08
2023-10-19 23:13:00,SystemResetWarning,0833.3,4.99,000.00,028.1,026.1,000.0,036.4,029.8,13.7,0000.0,0009.83,0002.62,0001.07
2023-10-19 23:14:00,SystemResetWarning,0833.2,5.00,000.00,028.1,026.4,000.0,036.5,029.9,13.7,0000.0,0009.14,0002.60,0001.05
2023-10-19 23:15:00,SystemResetWarning,0833.2,5.00,000.00,028.1,026.7,000.0,036.5,030.0,13.7,0000.0,0009.63,0002.60,0001.07
2023-10-19 23:16:00,SystemResetWarning,0833.2,5.00,000.00,028.2,027.0,000.0,036.5,030.0,13.6,0000.0,0010.53,0002.60,0001.07
2023-10-19 23:17:00,SystemResetWarning,0833.2,5.01,000.00,028.3,027.2,000.0,036.5,030.1,13.6,0000.0,0011.07,0002.59,0001.07
2023-10-19 23:18:00,SystemResetWarning,0833.2,4.99,000.00,028.3,027.1,000.0,036.6,030.2,13.6,0000.0,0011.16,0002.59,0001.06
2023-10-19 23:19:00,SystemResetWarning,0833.3,4.99,000.00,028.3,025.5,000.0,036.6,030.0,13.6,0000.0,0011.75,0002.66,0001.07
2023-10-19 23:20:00,SystemResetWarning,0833.2,5.00,000.00,028.2,024.2,000.0,036.5,029.8,13.6,0000.0,0012.26,0002.65,0001.06
2023-10-19 23:21:00,SystemResetWarning,0833.2,5.00,000.00,028.1,024.3,000.0,036.4,029.7,13.7,0000.0,0012.88,0002.65,0001.05
2023-10-19 23:22:00,SystemResetWarning,0833.2,5.01,000.00,028.0,024.7,000.0,036.4,029.6,13.6,0000.0,0013.87,0002.66,0001.05
2023-10-19 23:23:00,SystemResetWarning,0833.3,4.98,000.00,028.0,025.1,000.0,036.4,029.6,13.8,0000.0,0014.00,0002.67,0001.06
2023-10-19 23:24:00,SystemResetWarning,0833.2,4.99,000.00,028.0,025.5,000.0,036.4,029.7,13.9,0000.0,0013.82,0002.74,0001.07
2023-10-19 23:25:00,SystemResetWarning,0833.3,5.00,000.00,028.0,026.0,000.0,036.5,029.8,13.8,0000.0,0013.64,0002.74,0001.08
2023-10-19 23:26:00,SystemResetWarning,0833.3,5.01,000.00,028.1,026.3,000.0,036.5,029.9,13.8,0000.0,0013.57,0002.80,0001.08
2023-10-19 23:27:00,SystemResetWarning,0833.3,5.00,000.00,028.1,026.6,000.0,036.5,030.0,13.8,0000.0,0013.48,0002.73,0001.06
2023-10-19 23:28:00,SystemResetWarning,0833.3,5.00,000.00,028.2,026.9,000.0,036.5,030.0,13.5,0000.0,0014.05,0002.72,0001.07
2023-10-19 23:29:00,SystemResetWarning,0833.4,5.00,000.00,028.2,027.2,000.0,036.6,030.1,13.5,0000.0,0014.22,0002.69,0001.05
2023-10-19 23:30:00,SystemResetWarning,0833.4,5.00,000.00,028.3,027.3,000.0,036.6,030.2,13.3,0000.0,0014.18,0002.68,0001.04
2023-10-19 23:31:00,SystemResetWarning,0833.3,4.98,000.00,028.3,026.0,000.0,036.6,030.1,13.2,0000.0,0013.77,0002.65,0001.03
2023-10-19 23:32:00,SystemResetWarning,0833.3,5.01,000.00,028.2,024.4,000.0,036.5,029.9,13.2,0000.0,0013.44,0002.62,0001.02
2023-10-19 23:33:00,SystemResetWarning,0833.3,5.01,000.00,028.2,024.2,000.0,036.4,029.8,13.3,0000.0,0012.63,0002.69,0001.02
2023-10-19 23:34:00,SystemResetWarning,0833.3,5.00,000.00,028.1,024.6,000.0,036.4,029.6,13.3,0000.0,0012.94,0002.79,0001.02
2023-10-19 23:35:00,SystemResetWarning,0833.3,5.00,000.00,028.0,025.0,000.0,036.4,029.6,13.3,0000.0,0013.53,0002.79,0001.01
2023-10-19 23:36:00,SystemResetWarning,0833.3,4.99,000.00,028.0,025.4,000.0,036.5,029.7,13.3,0000.0,0014.50,0002.84,0001.01
2023-10-19 23:37:00,SystemResetWarning,0833.3,4.99,000.00,028.0,025.9,000.0,036.5,029.8,13.4,0000.0,0014.51,0002.82,0001.01
2023-10-19 23:38:00,SystemResetWarning,0833.3,5.00,000.00,028.1,026.2,000.0,036.5,029.9,13.3,0000.0,0013.35,0002.81,0001.00
2023-10-19 23:39:00,SystemResetWarning,0833.3,5.01,000.00,028.1,026.6,000.0,036.5,029.9,13.2,0000.0,0012.24,0002.82,0000.99
2023-10-19 23:40:00,SystemResetWarning,0833.3,4.99,000.00,028.2,026.9,000.0,036.5,030.0,13.1,0000.0,0012.20,0002.82,0001.00
2023-10-19 23:41:00,SystemResetWarning,0833.3,4.99,000.00,028.2,027.1,000.0,036.5,030.1,13.2,0000.0,0011.69,0002.79,0000.99
2023-10-19 23:42:00,SystemResetWarning,0833.3,5.01,000.00,028.3,027.3,000.0,036.6,030.2,13.2,0000.0,0011.49,0002.83,0001.00
2023-10-19 23:43:00,SystemResetWarning,0833.3,4.99,000.00,028.3,026.5,000.0,036.6,030.2,13.2,0000.0,0011.51,0002.87,0001.00
2023-10-19 23:44:00,SystemResetWarning,0833.2,5.01,000.00,028.3,024.7,000.0,036.5,029.9,13.2,0000.0,0012.03,0002.82,0000.99
2023-10-19 23:45:00,SystemResetWarning,0833.2,5.01,000.00,028.2,024.1,000.0,036.5,029.8,13.3,0000.0,0012.22,0002.71,0000.99
2023-10-19 23:46:00,SystemResetWarning,0833.3,5.00,000.00,028.1,024.4,000.0,036.5,029.6,13.4,0000.0,0013.19,0002.71,0000.98
2023-10-19 23:47:00,SystemResetWarning,0833.2,5.00,000.00,028.0,024.8,000.0,036.5,029.6,13.4,0000.0,0012.19,0002.63,0000.97
2023-10-19 23:48:00,SystemResetWarning,0833.3,5.00,000.00,028.0,025.3,000.0,036.5,029.6,13.4,0000.0,0012.27,0002.58,0000.96
2023-10-19 23:49:00,SystemResetWarning,0833.3,5.00,000.00,028.0,025.7,000.0,036.5,029.7,13.5,0000.0,0012.19,0002.55,0000.96
2023-10-19 23:50:00,SystemResetWarning,0833.2,5.01,000.00,028.1,026.1,000.0,036.5,029.8,13.4,0000.0,0013.72,0002.51,0000.97
2023-10-19 23:51:00,SystemResetWarning,0833.3,5.00,000.00,028.1,026.4,000.0,036.5,029.9,13.4,0000.0,0014.16,0002.51,0000.97
2023-10-19 23:52:00,SystemResetWarning,0833.2,4.99,000.00,028.2,026.7,000.0,036.5,030.0,13.4,0000.0,0014.16,0002.53,0000.97
2023-10-19 23:53:00,SystemResetWarning,0833.2,5.00,000.00,028.2,027.0,000.0,036.5,030.1,13.4,0000.0,0014.51,0002.58,0000.98
2023-10-19 23:54:00,SystemResetWarning,0833.2,5.01,000.00,028.3,027.2,000.0,036.6,030.2,13.3,0000.0,0015.04,0002.70,0000.98
2023-10-19 23:55:00,SystemResetWarning,0833.3,5.00,000.00,028.3,027.3,000.0,036.6,030.2,13.3,0000.0,0016.27,0002.90,0000.98
2023-10-19 23:56:00,SystemResetWarning,0833.3,4.99,000.00,028.4,026.2,000.0,036.6,030.2,13.2,0000.0,0017.09,0002.94,0000.98
2023-10-19 23:57:00,SystemResetWarning,0833.2,5.00,000.00,028.2,024.5,000.0,036.5,029.8,13.3,0000.0,0016.55,0002.96,0000.98
2023-10-19 23:58:00,SystemResetWarning,0833.2,5.01,000.00,028.2,024.2,000.0,036.5,029.7,13.3,0000.0,0016.97,0003.06,0000.99
2023-10-19 23:59:00,SystemResetWarning,0833.3,5.01,000.00,028.1,024.5,000.0,036.5,029.6,13.4,0000.0,0018.40,0003.14,0000.98
